Location: Newark
(36.0797°N, 3.9744°E)
Time: 21:10:36
(UTC+00:00)

Vanguard 2 Rocket - Pass Details

Date: 15 December 2019
Orbit: 554 x 3326 km, 32.9° (Epoch: 26 January)

Event Time Altitude Azimuth Distance (km) Brightness Sun altitude
Rises 12:49:19 0° 203° (SSW) 7,130 12.7 28.4°
Reaches altitude 10° 12:55:13 10° 193° (SSW) 6,246 12.9 28.0°
Maximum altitude 13:10:37 28° 143° (SE) 4,702 11.1 26.8°
Drops below altitude 10° 13:23:37 10° 93° (E) 5,326 10.7 25.7°
Sets 13:28:00 0° 82° (E) 5,969 10.8 25.3°
